KTNU

Details ICAO KTNU
Name Newton Muni
Region United States
Timezone America/Chicago (UTC-5.0)
Plans Departing 0
Arriving 3
Stats Elevation 953 ft / 290 m (AMSL)
Location 41.674433° -93.021727°
Runways 1
Magnetic Variation 0.296° E
Sunrise 2018-05-23 10:46:58 UTC / 2018-05-23 05:46:58 Local
Sunset 2018-05-24 01:33:37 UTC / 2018-05-23 20:33:37 Local
Advertisement - Login to hide

Runways

ID Width Length Bearing (true) Bearing (mag) Surface Threshold Offset Overrun Length
14 98 ft / 30 m 5,598 ft / 1,706 m 141.32° 141.02° Asphalt 0 ft / 0 m 0 ft / 0 m
32 98 ft / 30 m 5,598 ft / 1,706 m 321.33° 321.03° Asphalt 0 ft / 0 m 0 ft / 0 m

Approach Navaids

Runway Type Ident Frequency Range Bearing (true) Bearing (mag) Slope Elevation
32 Localiser IMGX 109.70 MHz 18 nm / 33 km 321.33° 321.03° - 953 ft / 290 m (AMSL)
32 Glidescope IMGX 109.70 MHz 10 nm / 19 km 321.33° 321.03° 3.00° 953 ft / 290 m (AMSL)

Map

Weather


0- 5 10 15 20 25 30 35+ Temperature / ° C

Clouds and Precipitation
Forecast for 2018-05-23 12:00 UTC. Updated 4 hours ago

Ground ~20,000 ft ~40,000 ft Winds

METAR

KTNU 231515Z AUTO 16011KT 10SM CLR 24/18 A3015 RMK AO2

TAF

Not found

Frequencies

Recorded 132.27 MHz AWOS 3
Clearance 126.30 MHz CLNC DEL
Unicom 122.80 MHz CTAF/UNICOM
Approach 123.90 MHz DES MOINES APP/DEP
Warning: Do not use this data for real-world aviation or navigation. No guarantee of current accuracy is given.